#�ϑ�����,���ϕ���,���ϕ���,�ő啗��,�ő啗����������,�ő�u�ԕ���,�ő�u�ԕ�����������
#(�N����),(m/s)   ,(16����),(m/s)   ,(16����)        ,(m/s)       ,(16����)            
2014/2/9 0:01,0.7,15,0.9,14,0.6,7
2014/2/9 0:02,0.7,14,0.7,14,1.5,7
2014/2/9 0:03,0.5,14,0.7,14,0.5,7
2014/2/9 0:04,0.5,13,0.5,14,1.1,9
2014/2/9 0:05,0.6,13,0.6,14,3.2,10
2014/2/9 0:06,0.8,12,0.8,14,4.4,9
2014/2/9 0:07,0.9,11,0.9,14,3.8,9
2014/2/9 0:08,1,9,1,14,3.3,10
2014/2/9 0:09,1.1,9,1.1,15,3.5,9
2014/2/9 0:10,1.2,9,1.2,9,2.7,8
2014/2/9 0:11,1.4,9,1.4,9,5,10
2014/2/9 0:12,1.5,10,1.5,10,4.3,10
2014/2/9 0:13,1.6,9,1.6,10,2.2,9
2014/2/9 0:14,1.7,10,1.7,10,1.9,10
2014/2/9 0:15,1.7,10,1.7,10,2.1,9
2014/2/9 0:16,1.6,10,1.7,10,3,10
2014/2/9 0:17,1.7,10,1.7,10,4.7,9
2014/2/9 0:18,1.9,10,1.9,10,4.7,10
2014/2/9 0:19,1.9,10,1.9,10,2.7,9
2014/2/9 0:20,2,10,2,10,4.3,10
2014/2/9 0:21,2,10,2,10,3.5,9
2014/2/9 0:22,1.8,10,2,10,2.9,8
2014/2/9 0:23,1.9,10,1.9,10,4.2,9
2014/2/9 0:24,2.1,9,2.1,10,4.8,9
2014/2/9 0:25,2.2,9,2.2,9,4.1,10
2014/2/9 0:26,2.1,9,2.2,9,2.1,7
2014/2/9 0:27,2,9,2.1,9,4.1,8
2014/2/9 0:28,1.8,9,2,9,4.1,8
2014/2/9 0:29,1.8,9,1.9,9,3.3,8
2014/2/9 0:30,1.7,9,1.8,9,2.1,8
2014/2/9 0:31,1.8,9,1.8,9,3.3,9
2014/2/9 0:32,1.8,9,1.8,9,3.1,9
2014/2/9 0:33,1.8,9,1.8,9,2.9,9
2014/2/9 0:34,1.6,9,1.7,9,4.3,10
2014/2/9 0:35,1.6,9,1.7,9,4.3,10
2014/2/9 0:36,1.7,9,1.7,9,4.2,9
2014/2/9 0:37,1.6,9,1.8,9,2,9
2014/2/9 0:38,1.7,9,1.7,9,6.1,16
2014/2/9 0:39,2,10,2,10,8.5,16
2014/2/9 0:40,2.2,11,2.2,11,7.7,14
2014/2/9 0:41,2.3,12,2.4,11,7.2,14
2014/2/9 0:42,2.3,13,2.3,11,4.4,12
2014/2/9 0:43,2.5,13,2.5,13,5.2,11
2014/2/9 0:44,2.6,13,2.6,13,4.2,10
2014/2/9 0:45,2.5,13,2.6,13,2,16
2014/2/9 0:46,2.5,14,2.5,13,6.3,16
2014/2/9 0:47,2.7,14,2.7,14,4.8,15
2014/2/9 0:48,2.8,13,2.8,14,4.7,11
2014/2/9 0:49,2.5,13,2.7,14,5.2,11
2014/2/9 0:50,2.5,12,2.6,14,4.3,16
2014/2/9 0:51,2.5,12,2.5,14,4.7,14
2014/2/9 0:52,2.5,12,2.5,14,4.2,13
2014/2/9 0:53,2.4,12,2.5,14,4.2,13
2014/2/9 0:54,2.4,13,2.4,14,3.2,13
2014/2/9 0:55,2.4,12,2.5,14,3.1,12
2014/2/9 0:56,2.5,12,2.5,14,4.2,11
2014/2/9 0:57,2.6,12,2.6,14,7.6,9
2014/2/9 0:58,2.7,12,2.7,13,5.6,14
2014/2/9 0:59,2.8,12,2.8,12,7.8,15
2014/2/9 1:00,2.7,12,2.8,12,4.9,11
2014/2/9 1:01,2.7,12,2.8,12,6.4,10
2014/2/9 1:02,2.8,12,2.8,12,4.7,12
2014/2/9 1:03,2.9,12,2.9,12,4.8,13
2014/2/9 1:04,3,12,3,12,3.9,13
2014/2/9 1:05,2.9,12,3,12,2.9,15
2014/2/9 1:06,2.9,12,2.9,12,3.5,13
2014/2/9 1:07,3,12,3,12,6.4,12
2014/2/9 1:08,3.1,12,3.1,12,7.8,13
2014/2/9 1:09,2.9,12,3.1,12,4.7,16
2014/2/9 1:10,3,13,3,12,6.1,14
2014/2/9 1:11,3.1,13,3.1,12,4.9,14
2014/2/9 1:12,3.1,13,3.2,13,4.4,11
2014/2/9 1:13,3,13,3.1,13,3.3,13
2014/2/9 1:14,3,13,3,13,5.1,10
2014/2/9 1:15,3.2,13,3.2,13,5.1,11
2014/2/9 1:16,3.4,13,3.4,13,4.2,12
2014/2/9 1:17,3.1,13,3.3,13,3.7,10
2014/2/9 1:18,3,12,3.1,13,5,11
2014/2/9 1:19,3.1,12,3.1,13,5.2,10
2014/2/9 1:20,3.2,11,3.2,13,5.1,11
2014/2/9 1:21,3.3,11,3.3,13,5.7,10
2014/2/9 1:22,3.2,11,3.3,13,4.8,10
2014/2/9 1:23,3.2,11,3.2,13,2.5,13
2014/2/9 1:24,3.2,11,3.2,13,3.1,12
2014/2/9 1:25,2.9,11,3.2,13,2.2,13
2014/2/9 1:26,2.7,11,2.8,13,2.1,12
2014/2/9 1:27,2.6,11,2.7,11,3.2,12
2014/2/9 1:28,2.5,11,2.6,11,3.1,12
2014/2/9 1:29,2.4,11,2.5,11,3.2,10
2014/2/9 1:30,2.1,12,2.3,11,2.5,11
2014/2/9 1:31,1.8,12,2,11,2.7,14
2014/2/9 1:32,1.7,12,1.8,11,2.7,14
2014/2/9 1:33,1.7,13,1.7,11,1.9,15
2014/2/9 1:34,1.6,13,1.7,11,2,16
2014/2/9 1:35,1.6,13,1.6,11,2.1,16
2014/2/9 1:36,1.7,14,1.7,11,3,14
2014/2/9 1:37,1.7,14,1.8,11,2.7,15
2014/2/9 1:38,1.5,14,1.6,11,0.6,16
2014/2/9 1:39,1.4,14,1.5,11,2.9,12
2014/2/9 1:40,1.5,14,1.5,12,3,12
2014/2/9 1:41,1.5,14,1.6,12,2.9,10
2014/2/9 1:42,1.5,14,1.5,14,2,12
2014/2/9 1:43,1.6,13,1.6,14,2,13
2014/2/9 1:44,1.6,13,1.6,14,2.5,13
2014/2/9 1:45,1.7,13,1.7,14,3.2,13
2014/2/9 1:46,1.7,13,1.7,14,2.4,13
2014/2/9 1:47,1.7,12,1.7,13,2.1,12
2014/2/9 1:48,1.8,12,1.8,12,2.2,11
2014/2/9 1:49,1.8,12,1.9,12,2,10
2014/2/9 1:50,1.7,12,1.8,12,1.1,11
2014/2/9 1:51,1.6,12,1.6,12,2.1,15
2014/2/9 1:52,1.8,13,1.8,12,4.7,15
2014/2/9 1:53,1.7,13,1.8,12,3.6,16
2014/2/9 1:54,1.7,13,1.7,12,2.7,14
2014/2/9 1:55,1.6,13,1.7,12,2,12
2014/2/9 1:56,1.4,13,1.6,12,1.5,16
2014/2/9 1:57,1.5,13,1.5,12,3.2,14
2014/2/9 1:58,1.5,14,1.5,12,2.9,16
2014/2/9 1:59,1.6,14,1.6,12,4.1,15
2014/2/9 2:00,1.7,15,1.7,13,3.6,15
2014/2/9 2:01,1.7,15,1.7,13,1.5,16
2014/2/9 2:02,1.4,14,1.7,13,1.9,16
2014/2/9 2:03,1.6,15,1.6,13,5,14
2014/2/9 2:04,1.8,14,1.8,14,4.9,14
2014/2/9 2:05,2,15,2,15,9.8,15
2014/2/9 2:06,2.5,15,2.5,15,9.9,16
2014/2/9 2:07,2.7,15,2.7,15,8.1,15
2014/2/9 2:08,2.9,15,2.9,15,7.7,15
2014/2/9 2:09,2.8,15,2.9,15,2.6,16
2014/2/9 2:10,2.8,15,2.8,15,3.5,13
2014/2/9 2:11,3,15,3,15,3.7,13
2014/2/9 2:12,3.1,15,3.1,15,4.2,12
2014/2/9 2:13,3.1,14,3.1,15,4.8,13
2014/2/9 2:14,3,14,3.1,15,3.8,13
2014/2/9 2:15,2.9,14,3,15,4.1,12
2014/2/9 2:16,2.4,14,2.8,15,2,1
2014/2/9 2:17,2.3,13,2.4,15,4.5,13
2014/2/9 2:18,2.2,13,2.3,15,4.7,13
2014/2/9 2:19,2.3,13,2.3,15,3.7,12
2014/2/9 2:20,2.3,12,2.4,15,2.6,10
2014/2/9 2:21,2.4,13,2.4,15,4.4,14
2014/2/9 2:22,2.4,13,2.4,15,4.1,12
2014/2/9 2:23,2.4,13,2.5,14,4.1,12
2014/2/9 2:24,2.5,13,2.5,14,4.7,16
2014/2/9 2:25,2.7,13,2.7,14,6.3,14
2014/2/9 2:26,2.9,13,2.9,13,5.5,15
2014/2/9 2:27,2.9,13,3,13,6.5,16
2014/2/9 2:28,2.9,13,2.9,13,4.4,14
2014/2/9 2:29,2.8,14,2.9,13,2.9,16
2014/2/9 2:30,3,14,3,13,7.1,15
2014/2/9 2:31,3.2,14,3.2,14,7.8,15
2014/2/9 2:32,3.5,14,3.5,14,9.3,16
2014/2/9 2:33,3.4,15,3.5,14,8.4,15
2014/2/9 2:34,3.7,15,3.7,15,8.6,15
2014/2/9 2:35,3.7,15,3.8,15,7.5,15
2014/2/9 2:36,4,15,4,15,9.7,15
2014/2/9 2:37,4,15,4,15,9.1,15
2014/2/9 2:38,4.5,15,4.5,15,12.5,15
2014/2/9 2:39,5,15,5,15,10.8,15
2014/2/9 2:40,5.2,15,5.2,15,9.9,15
2014/2/9 2:41,5,15,5.2,15,6.1,15
2014/2/9 2:42,4.7,15,5,15,7.9,16
2014/2/9 2:43,5,15,5,15,10.6,16
2014/2/9 2:44,5,15,5.1,15,9.3,15
2014/2/9 2:45,5.1,15,5.1,15,9.8,15
2014/2/9 2:46,4.9,15,5.2,15,6.4,16
2014/2/9 2:47,5,15,5,15,8.9,16
2014/2/9 2:48,4.8,15,5,15,7.6,15
2014/2/9 2:49,4.6,15,4.8,15,8.1,15
2014/2/9 2:50,4.2,15,4.5,15,2.7,15
2014/2/9 2:51,4.5,15,4.5,15,9.7,15
2014/2/9 2:52,4.7,16,4.7,15,7.5,15
2014/2/9 2:53,4.6,16,4.7,15,9.1,16
2014/2/9 2:54,4.3,16,4.5,15,5.6,14
2014/2/9 2:55,4.1,16,4.4,15,6.2,15
2014/2/9 2:56,4.1,16,4.1,15,5.5,1
2014/2/9 2:57,3.8,16,4,15,2.9,1
2014/2/9 2:58,3.3,15,3.8,15,1.6,14
2014/2/9 2:59,3,16,3.3,16,2.2,2
2014/2/9 3:00,3,16,3,16,2.4,2
2014/2/9 3:01,2.4,16,3,16,0.8,9
2014/2/9 3:02,1.9,16,2.3,16,1.5,10
2014/2/9 3:03,1.7,16,1.9,16,1.8,9
2014/2/9 3:04,1.6,16,1.7,16,2.2,4
2014/2/9 3:05,1.3,3,1.5,16,2.1,4
2014/2/9 3:06,1,4,1.3,16,2.7,4
2014/2/9 3:07,1.2,5,1.2,16,6.4,3
2014/2/9 3:08,1.2,4,1.2,15,1.9,5
2014/2/9 3:09,1.3,4,1.3,16,5.7,3
2014/2/9 3:10,1.4,4,1.4,16,4.4,3
2014/2/9 3:11,1.5,5,1.5,16,2.4,9
2014/2/9 3:12,1.7,5,1.7,16,4.5,8
2014/2/9 3:13,1.7,5,1.7,16,1.8,8
2014/2/9 3:14,1.7,5,1.7,5,2.6,9
2014/2/9 3:15,1.8,6,1.8,6,3.7,8
2014/2/9 3:16,1.9,7,1.9,7,4.1,9
2014/2/9 3:17,1.7,8,1.9,7,2.5,7
2014/2/9 3:18,1.8,9,1.8,7,3.5,13
2014/2/9 3:19,1.8,9,1.9,7,2.7,11
2014/2/9 3:20,1.7,10,1.8,7,2.5,9
2014/2/9 3:21,1.8,10,1.8,7,4.7,16
2014/2/9 3:22,1.7,11,1.8,7,4.5,1
2014/2/9 3:23,1.7,11,1.7,7,2.5,9
2014/2/9 3:24,1.8,11,1.8,7,3.8,9
2014/2/9 3:25,1.8,12,1.8,7,4.2,16
2014/2/9 3:26,1.9,13,1.9,7,6,16
2014/2/9 3:27,2.3,13,2.3,13,9.9,15
2014/2/9 3:28,2.4,14,2.4,14,5,14
2014/2/9 3:29,2.5,14,2.5,14,8.4,15
2014/2/9 3:30,2.6,14,2.6,14,3.6,12
2014/2/9 3:31,2.6,14,2.6,14,6.3,14
2014/2/9 3:32,3,14,3,14,11,14
2014/2/9 3:33,3.3,14,3.3,14,7.6,15
2014/2/9 3:34,3.5,15,3.5,15,6.5,16
2014/2/9 3:35,3.6,15,3.6,15,6,16
2014/2/9 3:36,3.7,15,3.7,15,7.1,16
2014/2/9 3:37,3.7,15,3.7,15,7.8,15
2014/2/9 3:38,3.9,15,3.9,15,6.8,16
2014/2/9 3:39,3.9,15,3.9,15,4.9,16
2014/2/9 3:40,3.7,15,3.9,15,3.1,16
2014/2/9 3:41,3.7,15,3.7,15,4.5,15
2014/2/9 3:42,3.4,15,3.7,15,6.8,15
2014/2/9 3:43,3.4,15,3.5,15,5.5,13
2014/2/9 3:44,3.2,15,3.3,15,7.6,14
2014/2/9 3:45,3.2,15,3.2,15,7.6,15
2014/2/9 3:46,3,15,3.2,15,5.8,14
2014/2/9 3:47,3,15,3,15,10.5,14
2014/2/9 3:48,3.1,15,3.1,15,9.9,15
2014/2/9 3:49,3.4,15,3.4,15,8.4,14
2014/2/9 3:50,3.7,15,3.7,15,7,15
2014/2/9 3:51,4.4,15,4.4,15,13.5,15
2014/2/9 3:52,4.6,15,4.6,15,11,15
2014/2/9 3:53,4.9,15,4.9,15,9.9,16
2014/2/9 3:54,5.2,15,5.2,15,9.1,15
2014/2/9 3:55,5.2,15,5.2,15,5.7,16
2014/2/9 3:56,5,15,5.2,15,3.9,16
2014/2/9 3:57,4.7,15,5,15,2.5,8
2014/2/9 3:58,4.2,14,4.6,15,3.2,9
2014/2/9 3:59,4,15,4.2,15,8.7,16
2014/2/9 4:00,4.1,15,4.1,15,8.7,15
2014/2/9 4:01,3.6,15,4.1,15,7,15
2014/2/9 4:02,3.2,15,3.5,15,3.5,3
2014/2/9 4:03,2.7,15,3.1,15,3.2,14
2014/2/9 4:04,2.4,15,2.6,15,7.7,16
2014/2/9 4:05,2.5,15,2.5,15,7.2,15
2014/2/9 4:06,3,15,3,15,10.1,15
2014/2/9 4:07,3.4,15,3.4,15,8.4,16
2014/2/9 4:08,3.6,15,3.6,14,7.7,13
2014/2/9 4:09,3.8,15,3.8,15,9,15
2014/2/9 4:10,3.6,15,3.8,15,7.8,1
2014/2/9 4:11,3.8,15,3.8,15,9.5,15
2014/2/9 4:12,3.9,15,3.9,15,5.6,14
2014/2/9 4:13,4.2,15,4.2,15,6.5,15
2014/2/9 4:14,4.2,15,4.3,15,4.7,14
2014/2/9 4:15,4.1,15,4.2,15,4.5,15
2014/2/9 4:16,4,15,4.1,15,9.1,15
2014/2/9 4:17,4,14,4.1,15,8.5,15
2014/2/9 4:18,4.4,15,4.4,15,12.4,15
2014/2/9 4:19,4.5,15,4.5,15,10.7,16
2014/2/9 4:20,4.8,15,4.8,15,12.6,14
2014/2/9 4:21,4.9,15,4.9,15,12.8,15
2014/2/9 4:22,5.3,15,5.3,15,10.3,15
2014/2/9 4:23,5.4,15,5.4,15,7,16
2014/2/9 4:24,5.4,15,5.4,15,6.1,16
2014/2/9 4:25,5.8,15,5.8,15,9.9,1
2014/2/9 4:26,5.7,15,5.8,15,9.3,16
2014/2/9 4:27,5.8,15,5.9,15,11,15
2014/2/9 4:28,5.6,15,5.8,15,9.9,15
2014/2/9 4:29,5.5,15,5.6,15,6.9,15
2014/2/9 4:30,5.1,15,5.5,15,6.5,15
2014/2/9 4:31,4.9,15,5.1,15,11.6,16
2014/2/9 4:32,5.2,15,5.2,15,13.6,15
2014/2/9 4:33,5.3,15,5.3,15,9.7,15
2014/2/9 4:34,5.4,15,5.4,15,6.2,16
2014/2/9 4:35,5.1,15,5.3,15,7.8,16
2014/2/9 4:36,5,15,5.1,15,7.4,16
2014/2/9 4:37,4.8,15,5,15,5.6,15
2014/2/9 4:38,4.7,15,4.8,15,8.4,16
2014/2/9 4:39,4.8,15,4.8,15,9.5,16
2014/2/9 4:40,5.1,15,5.1,15,9.5,16
2014/2/9 4:41,5,15,5.2,15,5.1,16
2014/2/9 4:42,4.4,15,4.9,15,6.4,16
2014/2/9 4:43,4.2,16,4.4,15,6.1,1
2014/2/9 4:44,4.1,16,4.2,15,6.2,16
2014/2/9 4:45,4,16,4.2,15,6.4,16
2014/2/9 4:46,3.6,16,3.9,15,2.7,14
2014/2/9 4:47,3.5,16,3.6,15,3.5,16
2014/2/9 4:48,3.2,16,3.5,15,4.2,12
2014/2/9 4:49,2.8,16,3.2,15,4.5,15
2014/2/9 4:50,2.4,15,2.8,15,4.8,16
2014/2/9 4:51,2.4,15,2.4,15,4.5,14
2014/2/9 4:52,2.3,15,2.4,15,4.9,13
2014/2/9 4:53,2,14,2.2,16,3.5,4
2014/2/9 4:54,1.8,14,2,16,3.5,12
2014/2/9 4:55,2,14,2,16,5.5,11
2014/2/9 4:56,2.2,14,2.2,16,5.2,12
2014/2/9 4:57,2.3,13,2.3,16,3.7,11
2014/2/9 4:58,2.4,13,2.4,16,4.7,15
2014/2/9 4:59,2.4,13,2.4,16,5.5,15
2014/2/9 5:00,2.5,13,2.5,13,5,13
2014/2/9 5:01,2.4,13,2.5,13,5.2,12
2014/2/9 5:02,2.3,13,2.4,13,4.3,15
2014/2/9 5:03,2.5,13,2.5,13,7,16
2014/2/9 5:04,2.8,14,2.8,14,5.7,15
2014/2/9 5:05,2.9,14,3,14,6.9,15
2014/2/9 5:06,3,14,3,14,6.4,15
2014/2/9 5:07,3.4,15,3.4,15,11,1
2014/2/9 5:08,3.8,15,3.8,15,11.4,15
2014/2/9 5:09,4.1,15,4.1,15,9.2,15
2014/2/9 5:10,4.1,15,4.1,15,8.9,16
2014/2/9 5:11,4.3,15,4.3,15,6.5,15
2014/2/9 5:12,4.4,16,4.4,15,6.9,1
2014/2/9 5:13,4.6,16,4.6,16,11.6,15
2014/2/9 5:14,4.8,16,4.8,16,12.6,15
2014/2/9 5:15,4.6,16,4.7,16,8.6,15
2014/2/9 5:16,4.9,16,4.9,16,10.7,16
2014/2/9 5:17,5,16,5,16,8.3,15
2014/2/9 5:18,5,16,5.1,16,10.9,15
2014/2/9 5:19,5.1,15,5.1,16,9.7,15
2014/2/9 5:20,5.3,15,5.3,15,11.6,15
2014/2/9 5:21,5.6,15,5.6,15,9.8,15
2014/2/9 5:22,5.7,15,5.7,15,6.9,16
2014/2/9 5:23,5.8,15,5.9,15,11.3,15
2014/2/9 5:24,5.8,15,5.8,15,12.8,15
2014/2/9 5:25,6.1,15,6.2,15,11.7,15
2014/2/9 5:26,6,15,6.1,15,12.3,15
2014/2/9 5:27,6.1,15,6.1,15,12.4,14
2014/2/9 5:28,6,15,6.1,15,12.6,14
2014/2/9 5:29,6.3,15,6.3,15,10.8,15
2014/2/9 5:30,6.2,15,6.3,15,10.3,16
2014/2/9 5:31,6,15,6.2,15,8.4,14
2014/2/9 5:32,5.8,15,6,15,3.9,16
2014/2/9 5:33,5.5,15,5.8,15,6.8,15
2014/2/9 5:34,5.4,15,5.6,15,6.9,15
2014/2/9 5:35,5.4,15,5.4,15,12.2,16
2014/2/9 5:36,5.7,15,5.8,15,14.4,15
2014/2/9 5:37,5.6,15,5.7,15,10.2,16
2014/2/9 5:38,5.7,15,5.7,15,13.3,15
2014/2/9 5:39,5.5,15,5.8,15,12.8,15
2014/2/9 5:40,5.5,15,5.6,15,8.6,15
2014/2/9 5:41,5.6,15,5.6,15,8.1,15
2014/2/9 5:42,5.9,15,5.9,15,8.9,15
2014/2/9 5:43,6.3,15,6.3,15,10.3,15
2014/2/9 5:44,6.2,15,6.3,15,8.5,15
2014/2/9 5:45,5.7,15,6.2,15,3,15
2014/2/9 5:46,5,15,5.7,15,3.7,16
2014/2/9 5:47,4.7,15,5,15,5.7,13
2014/2/9 5:48,4.2,15,4.7,15,6.9,15
2014/2/9 5:49,4.2,15,4.2,15,8.4,15
2014/2/9 5:50,4.2,15,4.2,15,9.4,16
2014/2/9 5:51,4.1,15,4.2,15,7.4,1
2014/2/9 5:52,3.8,15,4,15,4.3,1
2014/2/9 5:53,3.6,15,3.8,15,7.8,15
2014/2/9 5:54,3.5,15,3.6,15,5.8,16
2014/2/9 5:55,3.7,15,3.7,15,7.7,15
2014/2/9 5:56,4,15,4,15,6.9,15
2014/2/9 5:57,4.1,15,4.1,15,5.8,16
2014/2/9 5:58,4.1,15,4.2,15,7.8,16
2014/2/9 5:59,3.8,15,4.1,15,5.8,16
2014/2/9 6:00,3.4,15,3.8,15,3.5,12
2014/2/9 6:01,3.4,15,3.4,15,9.8,16
2014/2/9 6:02,3.3,15,3.4,15,2.7,15
2014/2/9 6:03,3,15,3.2,15,3.1,1
2014/2/9 6:04,3.2,15,3.2,15,10.7,16
2014/2/9 6:05,3.4,15,3.4,15,9.1,16
2014/2/9 6:06,3.4,15,3.4,15,8.2,1
2014/2/9 6:07,3.5,15,3.5,15,7.7,16
2014/2/9 6:08,3.3,15,3.5,15,3,13
2014/2/9 6:09,3.6,15,3.6,15,7.7,14
2014/2/9 6:10,3.9,15,3.9,15,6.9,14
2014/2/9 6:11,3.9,15,3.9,15,8.5,16
2014/2/9 6:12,4.1,15,4.1,15,7.6,16
2014/2/9 6:13,4.3,15,4.4,15,6.1,16
2014/2/9 6:14,4.1,15,4.3,15,5.6,15
2014/2/9 6:15,3.8,15,4.1,15,4.4,15
2014/2/9 6:16,3.4,15,3.7,15,4.2,1
2014/2/9 6:17,3.3,15,3.4,15,6,16
2014/2/9 6:18,3.5,15,3.5,15,4.8,15
2014/2/9 6:19,3.1,15,3.5,15,3.5,15
2014/2/9 6:20,3.1,15,3.2,15,6.4,15
2014/2/9 6:21,3.1,15,3.1,15,8.9,14
2014/2/9 6:22,3.2,15,3.2,15,9.3,16
2014/2/9 6:23,3.3,15,3.3,15,6.9,15
2014/2/9 6:24,3.5,15,3.5,15,7.7,1
2014/2/9 6:25,3.7,15,3.7,15,6.7,16
2014/2/9 6:26,3.9,15,3.9,15,7.5,16
2014/2/9 6:27,4.1,15,4.1,15,7.8,15
2014/2/9 6:28,4.1,15,4.1,15,4.4,15
2014/2/9 6:29,4.3,16,4.3,16,6.2,1
2014/2/9 6:30,4.3,16,4.4,16,6.7,16
2014/2/9 6:31,4.2,16,4.3,16,10.1,15
2014/2/9 6:32,4.3,16,4.3,16,8.9,15
2014/2/9 6:33,4.4,16,4.5,16,8.6,16
2014/2/9 6:34,4.5,16,4.5,16,11.1,16
2014/2/9 6:35,4.6,16,4.6,16,9.4,15
2014/2/9 6:36,4.8,15,4.8,15,8.4,15
2014/2/9 6:37,4.6,15,4.8,15,7.6,15
2014/2/9 6:38,4.8,15,4.8,15,8.6,16
2014/2/9 6:39,4.9,15,4.9,15,9.5,15
2014/2/9 6:40,5,15,5,15,8.6,15
2014/2/9 6:41,5.1,15,5.1,15,6,16
2014/2/9 6:42,5.1,15,5.2,15,9,15
2014/2/9 6:43,4.9,16,5.1,15,5.5,1
2014/2/9 6:44,4.6,16,4.9,15,3.2,16
2014/2/9 6:45,4.2,16,4.5,15,3.6,4
2014/2/9 6:46,3.8,16,4.2,15,2,1
2014/2/9 6:47,3.5,16,3.7,15,4.7,13
2014/2/9 6:48,3.7,16,3.7,15,10.2,16
2014/2/9 6:49,3.6,16,3.8,15,6.4,16
2014/2/9 6:50,3.4,16,3.5,15,6.9,16
2014/2/9 6:51,3.4,16,3.4,15,7.2,15
2014/2/9 6:52,3.3,16,3.4,15,6.1,15
2014/2/9 6:53,3.1,16,3.3,16,3.8,16
2014/2/9 6:54,3.1,16,3.1,16,3.9,1
2014/2/9 6:55,3.2,16,3.2,16,7.9,15
2014/2/9 6:56,3.6,15,3.6,16,7.2,15
2014/2/9 6:57,3.8,16,3.8,16,7.9,16
2014/2/9 6:58,3.5,16,3.8,16,5.2,15
2014/2/9 6:59,3.7,16,3.7,16,9.4,16
2014/2/9 7:00,3.7,15,3.9,16,7.9,15
2014/2/9 7:01,3.7,15,3.8,16,7.2,16
2014/2/9 7:02,4,16,4,16,11.4,15
2014/2/9 7:03,4,15,4,16,4.3,16
2014/2/9 7:04,4.2,15,4.2,15,5.4,1
2014/2/9 7:05,4.5,15,4.5,15,7.4,15
2014/2/9 7:06,4.3,15,4.5,15,6.1,15
2014/2/9 7:07,4,15,4.3,15,2.7,16
2014/2/9 7:08,3.8,15,4,15,1.4,16
2014/2/9 7:09,3.5,15,3.7,15,5.2,15
2014/2/9 7:10,3.3,15,3.5,15,4.8,15
2014/2/9 7:11,3.1,16,3.3,15,4.8,16
2014/2/9 7:12,2.6,15,3,15,3.5,15
2014/2/9 7:13,2.7,16,2.7,15,4.9,15
2014/2/9 7:14,2.8,15,2.8,15,8.7,15
2014/2/9 7:15,2.6,15,2.8,15,6.1,14
2014/2/9 7:16,2.6,15,2.6,15,6,15
2014/2/9 7:17,2.7,15,2.7,15,4.7,15
2014/2/9 7:18,2.9,15,2.9,15,5.5,15
2014/2/9 7:19,3.2,15,3.2,15,7.7,15
2014/2/9 7:20,3.6,15,3.6,15,11.1,15
2014/2/9 7:21,3.7,15,3.7,15,6.7,1
2014/2/9 7:22,4,15,4,15,11.9,16
2014/2/9 7:23,4,15,4,15,6.1,1
2014/2/9 7:24,3.7,15,4,15,4.1,15
2014/2/9 7:25,3.7,15,3.7,15,8.1,15
2014/2/9 7:26,4.2,15,4.2,15,14.7,15
2014/2/9 7:27,4.4,15,4.4,15,9.7,15
2014/2/9 7:28,4.4,15,4.4,15,3.9,12
2014/2/9 7:29,4.3,15,4.4,15,7.4,14
2014/2/9 7:30,4.2,15,4.4,15,8.7,15
2014/2/9 7:31,4.4,15,4.4,15,7.8,15
2014/2/9 7:32,4.2,15,4.4,15,6.5,14
2014/2/9 7:33,4.4,15,4.4,15,6.9,16
2014/2/9 7:34,4.7,15,4.7,15,5.5,15
2014/2/9 7:35,4.6,15,4.7,15,4.5,15
2014/2/9 7:36,4,15,4.6,15,4.1,16
2014/2/9 7:37,3.7,15,4,15,3.2,15
2014/2/9 7:38,3.7,15,3.7,15,3.5,1
2014/2/9 7:39,3.5,15,3.6,15,4.7,14
2014/2/9 7:40,3.1,15,3.5,15,3.8,16
2014/2/9 7:41,2.8,15,3.1,15,3.9,16
2014/2/9 7:42,2.7,15,2.8,15,5.1,1
2014/2/9 7:43,2.5,15,2.7,15,3.7,15
2014/2/9 7:44,2.3,15,2.5,15,3.8,16
2014/2/9 7:45,2.2,16,2.3,15,3.2,2
2014/2/9 7:46,2.1,16,2.2,15,3.3,2
2014/2/9 7:47,2.1,16,2.1,15,2.5,6
2014/2/9 7:48,2,1,2.1,15,2.7,7
2014/2/9 7:49,1.8,1,2,15,2.1,3
2014/2/9 7:50,1.7,1,1.8,15,2.5,16
2014/2/9 7:51,1.8,1,1.8,15,3,15
2014/2/9 7:52,1.7,1,1.8,15,3.7,15
2014/2/9 7:53,1.7,1,1.7,15,3.6,16
2014/2/9 7:54,1.6,1,1.7,16,3.1,16
2014/2/9 7:55,1.5,1,1.6,16,2.9,16
2014/2/9 7:56,1.4,1,1.5,16,2.2,16
2014/2/9 7:57,1.5,1,1.5,16,3.7,11
2014/2/9 7:58,1.6,16,1.6,1,3.8,10
2014/2/9 7:59,1.7,16,1.7,1,2.4,12
2014/2/9 8:00,1.6,15,1.7,1,1.4,16
2014/2/9 8:01,1.5,15,1.6,1,1.3,11
2014/2/9 8:02,1.4,15,1.5,1,2.5,14
2014/2/9 8:03,1.3,14,1.4,1,2.2,14
2014/2/9 8:04,1.1,14,1.2,16,0.8,15
2014/2/9 8:05,1,14,1.1,16,0.8,16
2014/2/9 8:06,1,14,1,16,0.5,3
2014/2/9 8:07,1.1,14,1.1,16,3.8,15
2014/2/9 8:08,1.3,15,1.3,16,6.3,16
2014/2/9 8:09,1.2,15,1.3,16,3.9,16
2014/2/9 8:10,1.3,15,1.3,15,2.6,13
2014/2/9 8:11,1.5,15,1.5,15,5.4,16
2014/2/9 8:12,1.8,15,1.8,15,5.4,15
2014/2/9 8:13,2,15,2,15,5.1,16
2014/2/9 8:14,2.1,15,2.1,15,3.5,15
2014/2/9 8:15,2.4,15,2.4,15,5.6,13
2014/2/9 8:16,2.6,15,2.6,15,5.1,15
2014/2/9 8:17,2.6,15,2.6,15,3,16
2014/2/9 8:18,2.4,15,2.6,15,4.5,14
2014/2/9 8:19,2.5,15,2.5,15,5.2,15
2014/2/9 8:20,2.7,15,2.7,15,5.6,15
2014/2/9 8:21,2.7,15,2.8,15,5.4,16
2014/2/9 8:22,2.7,15,2.7,15,5.6,1
2014/2/9 8:23,2.6,15,2.7,15,4.9,14
2014/2/9 8:24,2.8,15,2.8,15,5.2,16
2014/2/9 8:25,2.7,15,2.8,15,5.1,15
2014/2/9 8:26,3.1,15,3.1,15,9.7,16
2014/2/9 8:27,3.5,16,3.5,16,10.9,14
2014/2/9 8:28,3.7,15,3.7,15,8.2,15
2014/2/9 8:29,3.9,15,3.9,15,6.9,15
2014/2/9 8:30,3.9,15,3.9,15,5.8,16
2014/2/9 8:31,3.8,15,3.9,15,5.6,15
2014/2/9 8:32,3.9,15,3.9,15,6,15
2014/2/9 8:33,4,15,4,15,7.1,1
2014/2/9 8:34,4.1,15,4.1,15,6.7,16
2014/2/9 8:35,4.2,15,4.2,15,6.5,14
2014/2/9 8:36,4,15,4.3,15,6.3,15
2014/2/9 8:37,3.6,15,4,15,3.6,16
2014/2/9 8:38,3.5,15,3.6,15,5.1,16
2014/2/9 8:39,3.4,15,3.5,15,7,15
2014/2/9 8:40,3.4,15,3.4,15,5,15
2014/2/9 8:41,3.4,15,3.5,15,4.3,15
2014/2/9 8:42,3.2,15,3.4,15,3.7,15
2014/2/9 8:43,3,15,3.2,15,4.5,15
2014/2/9 8:44,2.9,15,3.1,15,4.1,15
2014/2/9 8:45,2.7,15,2.9,15,3.9,14
2014/2/9 8:46,2.6,15,2.7,15,4.7,14
2014/2/9 8:47,2.7,15,2.7,15,3,15
2014/2/9 8:48,2.6,15,2.7,15,3.9,16
2014/2/9 8:49,2.6,15,2.6,15,4.1,1
2014/2/9 8:50,2.4,15,2.6,15,2.9,1
2014/2/9 8:51,2.2,16,2.4,15,1.8,16
2014/2/9 8:52,2.1,16,2.2,15,2,3
2014/2/9 8:53,2.1,16,2.1,15,2.6,2
2014/2/9 8:54,2,16,2.1,15,2.4,16
2014/2/9 8:55,1.9,1,2,15,2.7,2
2014/2/9 8:56,1.9,1,1.9,15,4.3,2
2014/2/9 8:57,2,2,2,15,5.1,3
2014/2/9 8:58,2.1,2,2.1,15,5,3
2014/2/9 8:59,2,2,2,15,4.1,3
2014/2/9 9:00,2.2,2,2.2,15,4.7,3
2014/2/9 9:01,2.3,2,2.3,2,2.9,2
2014/2/9 9:02,2.3,2,2.3,2,3.3,1
2014/2/9 9:03,2.6,2,2.6,2,9.7,1
2014/2/9 9:04,2.9,2,2.9,2,6.9,2
2014/2/9 9:05,3.1,2,3.1,2,6.9,3
2014/2/9 9:06,3.3,2,3.3,2,8.9,4
2014/2/9 9:07,3.3,2,3.3,2,5.2,3
2014/2/9 9:08,3.3,2,3.3,2,6.3,3
2014/2/9 9:09,3.5,2,3.5,2,7.2,16
2014/2/9 9:10,3.4,2,3.5,2,4.2,16
2014/2/9 9:11,3.3,2,3.4,2,3,2
2014/2/9 9:12,3.3,2,3.4,2,2.7,16
2014/2/9 9:13,3.1,2,3.3,2,3.8,3
2014/2/9 9:14,2.9,2,3.1,2,4.3,2
2014/2/9 9:15,2.8,2,2.9,2,4.1,1
2014/2/9 9:16,2.5,2,2.8,2,4.5,3
2014/2/9 9:17,2.6,2,2.6,2,6.3,2
2014/2/9 9:18,2.7,2,2.7,2,5.5,3
2014/2/9 9:19,2.7,2,2.7,2,7,3
2014/2/9 9:20,2.8,3,2.8,2,6.4,2
2014/2/9 9:21,2.7,2,2.8,2,2.1,3
2014/2/9 9:22,2.8,3,2.8,2,3.5,1
2014/2/9 9:23,2.7,2,2.8,2,4.4,2
2014/2/9 9:24,2.7,2,2.7,2,3.1,13
2014/2/9 9:25,2.5,2,2.7,2,2.5,1
2014/2/9 9:26,2.4,2,2.6,2,2.1,2
2014/2/9 9:27,2.2,2,2.4,2,2,16
2014/2/9 9:28,2,2,2.2,2,3.1,1
2014/2/9 9:29,1.8,1,2,2,4.8,3
2014/2/9 9:30,2,1,2,2,10.8,2
2014/2/9 9:31,2.5,1,2.5,3,8.6,3
2014/2/9 9:32,2.7,1,2.7,3,6.9,2
2014/2/9 9:33,2.6,2,2.7,2,3.1,4
2014/2/9 9:34,2.6,2,2.6,2,2.1,2
2014/2/9 9:35,2.6,2,2.6,1,3.8,3
2014/2/9 9:36,2.8,2,2.8,2,4.2,3
2014/2/9 9:37,2.9,3,2.9,3,4.1,3
2014/2/9 9:38,2.9,3,2.9,3,3.6,2
2014/2/9 9:39,2.7,3,2.8,3,3.2,16
2014/2/9 9:40,2.4,3,2.7,3,2.1,1
2014/2/9 9:41,1.9,3,2.4,3,1.8,14
2014/2/9 9:42,1.8,2,1.8,3,6.2,14
2014/2/9 9:43,2.1,2,2.1,3,7.6,15
2014/2/9 9:44,2.2,2,2.2,3,3.7,1
2014/2/9 9:45,2.1,1,2.2,3,3.7,14
2014/2/9 9:46,2.2,1,2.2,3,4.3,15
2014/2/9 9:47,2.1,16,2.2,3,3.2,16
2014/2/9 9:48,2.1,16,2.1,3,3.2,15
2014/2/9 9:49,2.3,16,2.3,3,5.4,15
2014/2/9 9:50,2.5,15,2.5,15,5.5,15
2014/2/9 9:51,2.6,16,2.6,15,3.5,15
2014/2/9 9:52,2.5,16,2.6,15,4.4,1
2014/2/9 9:53,2.3,16,2.5,15,2.4,3
2014/2/9 9:54,2.2,16,2.3,15,2,4
2014/2/9 9:55,2.1,1,2.2,15,1.5,6
2014/2/9 9:56,1.8,1,2.1,15,1.1,1
2014/2/9 9:57,1.7,1,1.8,15,1.3,2
2014/2/9 9:58,1.7,1,1.7,15,2.4,15
2014/2/9 9:59,1.5,2,1.7,15,2.2,16
2014/2/9 10:00,1.2,2,1.5,15,1.5,2
2014/2/9 10:01,1.2,2,1.2,16,2.9,15
2014/2/9 10:02,1.1,2,1.1,16,2.7,15
2014/2/9 10:03,1,1,1.1,16,1.6,14
2014/2/9 10:04,0.9,16,1,16,1.5,15
2014/2/9 10:05,1,16,1,1,3,15
2014/2/9 10:06,1.1,16,1.1,1,2.1,2
2014/2/9 10:07,1.1,16,1.1,1,1.6,2
2014/2/9 10:08,1.1,16,1.1,1,0.5,11
2014/2/9 10:09,1.1,16,1.1,2,2.5,16
2014/2/9 10:10,1.1,16,1.1,2,3.2,16
2014/2/9 10:11,1.2,16,1.2,16,5.6,16
2014/2/9 10:12,1.3,16,1.3,16,5,1
2014/2/9 10:13,1.4,1,1.4,1,3.1,3
2014/2/9 10:14,1.5,1,1.5,1,4.3,3
2014/2/9 10:15,1.5,2,1.5,1,2.4,3
2014/2/9 10:16,1.5,2,1.5,1,1.4,16
2014/2/9 10:17,1.4,1,1.4,1,1.5,16
2014/2/9 10:18,1.6,1,1.6,1,4.2,14
2014/2/9 10:19,1.9,1,1.9,1,6.9,13
2014/2/9 10:20,2,1,2,1,6.5,14
2014/2/9 10:21,2,1,2,1,5.2,3
2014/2/9 10:22,1.9,2,2,1,4.2,4
2014/2/9 10:23,2,2,2,1,2.5,2
2014/2/9 10:24,2,1,2,1,3.1,1
2014/2/9 10:25,2,1,2,1,3.1,15
2014/2/9 10:26,2,16,2,1,1.6,13
2014/2/9 10:27,1.9,1,2,1,0.5,16
2014/2/9 10:28,1.7,2,1.9,1,0.3,9
2014/2/9 10:29,1.4,2,1.7,1,0.9,11
2014/2/9 10:30,1.3,2,1.4,1,1.8,11
2014/2/9 10:31,1.1,13,1.3,2,1.5,12
2014/2/9 10:32,0.9,14,1.1,2,0.5,1
2014/2/9 10:33,0.8,12,0.9,2,1,6
2014/2/9 10:34,0.7,9,0.8,1,2.5,7
2014/2/9 10:35,0.8,8,0.8,1,2.2,6
2014/2/9 10:36,0.8,7,0.8,16,2.1,7
2014/2/9 10:37,0.9,8,0.9,1,1.5,9
2014/2/9 10:38,1,9,1,2,1.5,12
2014/2/9 10:39,1,9,1,3,1.4,12
2014/2/9 10:40,1,9,1,2,1.5,9
2014/2/9 10:41,1.1,9,1.1,14,2.2,10
2014/2/9 10:42,1.2,10,1.2,9,2.2,11
2014/2/9 10:43,1.3,10,1.3,10,2.4,10
2014/2/9 10:44,1.3,11,1.3,10,2.2,13
2014/2/9 10:45,1.3,11,1.3,10,3,14
2014/2/9 10:46,1.4,12,1.4,12,3.8,15
2014/2/9 10:47,1.5,12,1.5,12,4.8,16
2014/2/9 10:48,1.5,13,1.5,12,4.2,16
2014/2/9 10:49,1.5,14,1.6,13,2.6,2
2014/2/9 10:50,1.5,15,1.5,13,1.5,2
2014/2/9 10:51,1.4,15,1.5,13,0.6,16
2014/2/9 10:52,1.3,16,1.4,13,1.5,13
2014/2/9 10:53,1.3,15,1.3,13,1.8,13
2014/2/9 10:54,1.3,16,1.3,13,1,10
2014/2/9 10:55,1.2,16,1.2,13,2,1
2014/2/9 10:56,1.1,16,1.1,13,2.2,16
2014/2/9 10:57,1,1,1,13,2.5,4
2014/2/9 10:58,1,1,1,13,3,5
2014/2/9 10:59,1,1,1,14,3.3,1
2014/2/9 11:00,1.1,1,1.1,15,2.5,16
2014/2/9 11:01,1.2,1,1.2,15,2.1,1
2014/2/9 11:02,1.2,2,1.2,16,1.5,1
2014/2/9 11:03,1.2,2,1.2,15,2.9,4
2014/2/9 11:04,1.3,2,1.3,2,3.3,2
2014/2/9 11:05,1.5,2,1.5,2,3.7,2
2014/2/9 11:06,1.6,2,1.6,2,3.7,2
2014/2/9 11:07,1.7,2,1.7,2,4.4,4
2014/2/9 11:08,1.8,2,1.8,2,4.5,16
2014/2/9 11:09,1.8,1,1.8,2,2.7,16
2014/2/9 11:10,1.7,1,1.8,2,1.8,1
2014/2/9 11:11,1.7,2,1.7,2,2.1,2
2014/2/9 11:12,1.7,2,1.8,2,1.8,2
2014/2/9 11:13,1.8,2,1.8,2,3.9,3
2014/2/9 11:14,1.7,2,1.8,2,2.2,3
2014/2/9 11:15,1.5,2,1.7,2,1.3,2
2014/2/9 11:16,1.4,2,1.4,2,1.8,1
2014/2/9 11:17,1.2,2,1.3,2,0.9,10
2014/2/9 11:18,1.1,2,1.2,1,2.5,12
2014/2/9 11:19,1,2,1,1,1.6,14
2014/2/9 11:20,1,2,1,2,2,4
2014/2/9 11:21,1.2,1,1.2,2,6.5,15
2014/2/9 11:22,1.4,16,1.4,2,6.5,15
2014/2/9 11:23,1.5,15,1.6,2,3.6,14